Location: Newark
(58.9986°N, 38.5006°E)
Time: 14:32:50
(UTC+00:00)

ISS - Pass Details

Date: 05 March 2021
Orbit: 418 x 422 km, 51.6° (Epoch: 13 April)

Event Time Altitude Azimuth Distance (km) Brightness Sun altitude
Exits shadow 02:21:38 21° 208° (SSW) 1,012 -2.2 -14.9°
Maximum altitude 02:22:21 22° 188° (S) 963 -2.1 -14.8°
Drops below altitude 10° 02:25:02 10° 135° (SE) 1,494 -0.5 -14.4°
Sets 02:27:25 0° 120° (ESE) 2,363 0.9 -14.1°
